Location: Le Pont-de-Coulogne
(50.9242°N, 1.8700°E)
Time: 07:48:53
(UTC+00:00)

Helios 1B rocket - Pass Details

Date: 15 May 2026
Orbit: 459 x 466 km, 98.2° (Epoch: 5 June)

Event Time Altitude Azimuth Distance (km) Brightness Sun altitude
Exits shadow 21:22:33 11° 95° (E) 1,573 4.3 -13.0°
Maximum altitude 21:24:27 16° 60° (ENE) 1,330 4.2 -13.2°
Drops below altitude 10° 21:26:37 10° 22° (NNE) 1,646 5.2 -13.4°
Sets 21:29:16 0° 0° (N) 2,528 6.7 -13.6°
